| time (UTC) | temp C | wind direction | speed KPH | gust KPH | rain 1hr cm | rain 24hr cm | rain mn cm | humidity % | barometer mb |
| 20260906092104 | 32 | 75 | 14.5 | 19.3 | 0.00 | 0.00 | 0.00 | 33 | 1019.2 |
| 20260906090104 | 32 | 45 | 16.1 | 16.1 | 0.00 | 0.00 | 0.00 | 32 | 1019.2 |
| 20260906085603 | 32 | 110 | 9.7 | 19.3 | 0.00 | 0.00 | 0.00 | 33 | 1019.3 |
| 20260906085104 | 32 | 122 | 14.5 | 16.1 | 0.00 | 0.00 | 0.00 | 34 | 1019.3 |
| 20260906084603 | 32 | 89 | 11.3 | 16.1 | 0.00 | 0.00 | 0.00 | 33 | 1019.2 |
| 20260906084103 | 32 | 95 | 9.7 | 19.3 | 0.00 | 0.00 | 0.00 | 33 | 1019.2 |
| 20260906083603 | 32 | 102 | 11.3 | 14.5 | 0.00 | 0.00 | 0.00 | 33 | 1019.2 |
| 20260906082603 | 32 | 84 | 9.7 | 16.1 | 0.00 | 0.00 | 0.00 | 32 | 1019.3 |
| 20260906082103 | 32 | 94 | 8.0 | 16.1 | 0.00 | 0.00 | 0.00 | 31 | 1019.3 |
| 20260906081603 | 32 | 66 | 9.7 | 14.5 | 0.00 | 0.00 | 0.00 | 32 | 1019.3 |
| 20260906081103 | 32 | 99 | 12.9 | 16.1 | 0.00 | 0.00 | 0.00 | 31 | 1019.4 |
| 20260906080104 | 32 | 103 | 9.7 | 14.5 | 0.00 | 0.00 | 0.00 | 32 | 1019.3 |
| 20260906075103 | 31 | 53 | 14.5 | 16.1 | 0.00 | 0.00 | 0.00 | 37 | 1019.2 |
| 20260906074603 | 31 | 70 | 11.3 | 19.3 | 0.00 | 0.00 | 0.00 | 32 | 1019.3 |
| 20260906073603 | 31 | 112 | 14.5 | 20.9 | 0.00 | 0.00 | 0.00 | 35 | 1019.1 |
| 20260906072603 | 32 | 117 | 12.9 | 16.1 | 0.00 | 0.00 | 0.00 | 31 | 1019.1 |
| 20260906072103 | 32 | 94 | 11.3 | 16.1 | 0.00 | 0.00 | 0.00 | 31 | 1018.9 |
| 20260906071603 | 32 | 90 | 12.9 | 19.3 | 0.00 | 0.00 | 0.00 | 31 | 1018.9 |
| 20260906071103 | 32 | 45 | 9.7 | 12.9 | 0.00 | 0.00 | 0.00 | 30 | 1018.9 |
| 20260906070104 | 32 | 30 | 11.3 | 14.5 | 0.00 | 0.00 | 0.00 | 31 | 1018.8 |
| 20260906065103 | 32 | 56 | 8.0 | 12.9 | 0.00 | 0.00 | 0.00 | 31 | 1018.7 |
| 20260906064603 | 31 | 45 | 9.7 | 14.5 | 0.00 | 0.00 | 0.00 | 31 | 1018.6 |
| 20260906064103 | 31 | 112 | 9.7 | 12.9 | 0.00 | 0.00 | 0.00 | 33 | 1018.6 |
| 20260906063603 | 30 | 127 | 8.0 | 12.9 | 0.00 | 0.00 | 0.00 | 33 | 1018.5 |
| 20260906063103 | 31 | 77 | 12.9 | 14.5 | 0.00 | 0.00 | 0.00 | 31 | 1018.5 |
| 20260906062603 | 31 | 91 | 9.7 | 16.1 | 0.00 | 0.00 | 0.00 | 30 | 1018.5 |
| 20260906062103 | 31 | 32 | 11.3 | 14.5 | 0.00 | 0.00 | 0.00 | 31 | 1018.4 |
| 20260906061104 | 30 | 46 | 6.4 | 9.7 | 0.00 | 0.00 | 0.00 | 33 | 1018.2 |
| 20260906060603 | 30 | 123 | 6.4 | 11.3 | 0.00 | 0.00 | 0.00 | 33 | 1018.2 |
| 20260906060104 | 31 | 102 | 6.4 | 9.7 | 0.00 | 0.00 | 0.00 | 32 | 1018.2 |
| 20260906055104 | 31 | 188 | 0.0 | 3.2 | 0.00 | 0.00 | 0.00 | 31 | 1018.2 |
| 20260906054603 | 29 | 126 | 4.8 | 8.0 | 0.00 | 0.00 | 0.00 | 35 | 1018.2 |
| 20260906054103 | 30 | 225 | 8.0 | 9.7 | 0.00 | 0.00 | 0.00 | 34 | 1018.2 |
| 20260906053603 | 30 | 270 | 4.8 | 8.0 | 0.00 | 0.00 | 0.00 | 33 | 1018.1 |
| 20260906052603 | 30 | 112 | 1.6 | 8.0 | 0.00 | 0.00 | 0.00 | 34 | 1018.1 |
| 20260906052104 | 30 | 270 | 4.8 | 8.0 | 0.00 | 0.00 | 0.00 | 34 | 1018.1 |
| 20260906051603 | 30 | 276 | 6.4 | 8.0 | 0.00 | 0.00 | 0.00 | 35 | 1018.1 |
| 20260906051104 | 30 | 270 | 4.8 | 4.8 | 0.00 | 0.00 | 0.00 | 34 | 1018.2 |
| 20260906050603 | 29 | 357 | 3.2 | 8.0 | 0.00 | 0.00 | 0.00 | 36 | 1018.2 |
| 20260906050104 | 28 | 3 | 3.2 | 8.0 | 0.00 | 0.00 | 0.00 | 35 | 1018.2 |
| 20260906045104 | 28 | 336 | 3.2 | 8.0 | 0.00 | 0.00 | 0.00 | 38 | 1018.2 |
| 20260906044603 | 27 | 34 | 1.6 | 3.2 | 0.00 | 0.00 | 0.00 | 38 | 1018.0 |
| 20260906044103 | 27 | 0 | 0.0 | 4.8 | 0.00 | 0.00 | 0.00 | 39 | 1018.0 |
| 20260906043603 | 26 | 308 | 0.0 | 3.2 | 0.00 | 0.00 | 0.00 | 42 | 1017.9 |
| 20260906043103 | 26 | 99 | 0.0 | 4.8 | 0.00 | 0.00 | 0.00 | 43 | 1017.9 |
| 20260906042103 | 25 | 356 | 4.8 | 8.0 | 0.00 | 0.00 | 0.00 | 45 | 1017.8 |
| 20260906041603 | 25 | 338 | 3.2 | 4.8 | 0.00 | 0.00 | 0.00 | 45 | 1017.8 |
| 20260906041103 | 24 | 22 | 4.8 | 8.0 | 0.00 | 0.00 | 0.00 | 45 | 1017.7 |
| 20260906040104 | 23 | 1 | 3.2 | 4.8 | 0.00 | 0.00 | 0.00 | 48 | 1017.7 |
| 20260906035103 | 23 | 35 | 0.0 | 3.2 | 0.00 | 0.00 | 0.00 | 44 | 1017.8 |
| 20260906034604 | 23 | 280 | 3.2 | 3.2 | 0.00 | 0.00 | 0.00 | 45 | 1017.6 |
| 20260906034103 | 23 | 21 | 1.6 | 3.2 | 0.00 | 0.00 | 0.00 | 45 | 1017.6 |
| 20260906033604 | 23 | 312 | 3.2 | 3.2 | 0.00 | 0.00 | 0.00 | 45 | 1017.6 |
| 20260906033103 | 23 | 23 | 4.8 | 8.0 | 0.00 | 0.00 | 0.00 | 45 | 1017.6 |
| 20260906032604 | 23 | 116 | 0.0 | 8.0 | 0.00 | 0.00 | 0.00 | 42 | 1017.6 |
| 20260906032103 | 23 | 243 | 1.6 | 8.0 | 0.00 | 0.00 | 0.00 | 42 | 1017.5 |
| 20260906031603 | 23 | 53 | 1.6 | 4.8 | 0.00 | 0.00 | 0.00 | 42 | 1017.5 |
| 20260906031103 | 23 | 60 | 1.6 | 4.8 | 0.00 | 0.00 | 0.00 | 43 | 1017.5 |
| 20260906030604 | 23 | 21 | 3.2 | 3.2 | 0.00 | 0.00 | 0.00 | 44 | 1017.5 |
| 20260906030105 | 23 | 315 | 1.6 | 4.8 | 0.00 | 0.00 | 0.00 | 44 | 1017.4 |
| 20260906025103 | 23 | 3 | 1.6 | 3.2 | 0.00 | 0.00 | 0.00 | 43 | 1017.3 |
| 20260906024604 | 23 | 22 | 0.0 | 3.2 | 0.00 | 0.00 | 0.00 | 42 | 1017.2 |
| 20260906024103 | 23 | 247 | 0.0 | 1.6 | 0.00 | 0.00 | 0.00 | 41 | 1017.2 |
| 20260906023604 | 24 | 109 | 1.6 | 3.2 | 0.00 | 0.00 | 0.00 | 39 | 1017.1 |
| 20260906023103 | 24 | 288 | 1.6 | 3.2 | 0.00 | 0.00 | 0.00 | 39 | 1017.1 |
| 20260906022603 | 24 | 332 | 4.8 | 8.0 | 0.00 | 0.00 | 0.00 | 38 | 1017.1 |
| 20260906022104 | 24 | 149 | 3.2 | 3.2 | 0.00 | 0.00 | 0.00 | 38 | 1017.2 |
| 20260906021604 | 24 | 240 | 4.8 | 8.0 | 0.00 | 0.00 | 0.00 | 38 | 1017.2 |
| 20260906021103 | 24 | 266 | 3.2 | 8.0 | 0.00 | 0.00 | 0.00 | 38 | 1017.2 |
| 20260906020604 | 24 | 134 | 1.6 | 9.7 | 0.00 | 0.00 | 0.00 | 38 | 1017.2 |
| 20260906015603 | 24 | 243 | 4.8 | 8.0 | 0.00 | 0.00 | 0.00 | 39 | 1017.2 |
| 20260906015104 | 24 | 260 | 8.0 | 9.7 | 0.00 | 0.00 | 0.00 | 40 | 1017.2 |
| 20260906014104 | 24 | 217 | 9.7 | 11.3 | 0.00 | 0.00 | 0.00 | 43 | 1017.2 |
| 20260906013604 | 24 | 270 | 9.7 | 11.3 | 0.00 | 0.00 | 0.00 | 45 | 1017.3 |
| 20260906013104 | 24 | 270 | 9.7 | 11.3 | 0.00 | 0.00 | 0.00 | 46 | 1017.3 |
| 20260906012604 | 23 | 270 | 8.0 | 9.7 | 0.00 | 0.00 | 0.00 | 47 | 1017.3 |
| 20260906012103 | 23 | 270 | 4.8 | 9.7 | 0.00 | 0.00 | 0.00 | 47 | 1017.4 |
| 20260906011604 | 24 | 255 | 6.4 | 9.7 | 0.00 | 0.00 | 0.00 | 46 | 1017.4 |
| 20260906011104 | 24 | 271 | 8.0 | 9.7 | 0.00 | 0.00 | 0.00 | 45 | 1017.4 |
| 20260906010603 | 25 | 241 | 9.7 | 11.3 | 0.00 | 0.00 | 0.00 | 43 | 1017.4 |
| 20260906010103 | 25 | 283 | 9.7 | 9.7 | 0.00 | 0.00 | 0.00 | 42 | 1017.4 |
| 20260906005604 | 24 | 270 | 8.0 | 9.7 | 0.00 | 0.00 | 0.00 | 40 | 1017.4 |
| 20260906004603 | 24 | 311 | 8.0 | 8.0 | 0.00 | 0.00 | 0.00 | 38 | 1017.3 |
| 20260906004104 | 24 | 270 | 4.8 | 8.0 | 0.00 | 0.00 | 0.00 | 38 | 1017.3 |
| 20260906003604 | 24 | 258 | 8.0 | 9.7 | 0.00 | 0.00 | 0.00 | 38 | 1017.3 |
| 20260906003103 | 23 | 259 | 8.0 | 9.7 | 0.00 | 0.00 | 0.00 | 40 | 1017.4 |
| 20260906002603 | 23 | 174 | 1.6 | 3.2 | 0.00 | 0.00 | 0.00 | 40 | 1017.4 |
| 20260906002104 | 23 | 271 | 1.6 | 3.2 | 0.00 | 0.00 | 0.00 | 39 | 1017.4 |
| 20260906001604 | 23 | 213 | 0.0 | 3.2 | 0.00 | 0.00 | 0.00 | 38 | 1017.4 |
| 20260906001103 | 23 | 267 | 0.0 | 3.2 | 0.00 | 0.00 | 0.00 | 38 | 1017.5 |
| 20260906000603 | 23 | 315 | 3.2 | 4.8 | 0.00 | 0.00 | 0.00 | 39 | 1017.5 |
| 20260905235603 | 23 | 284 | 0.0 | 3.2 | 0.00 | 0.00 | 0.00 | 40 | 1017.6 |
| 20260905235103 | 23 | 158 | 0.0 | 3.2 | 0.00 | 0.00 | 0.00 | 39 | 1017.6 |
| 20260905234104 | 24 | 318 | 3.2 | 8.0 | 0.00 | 0.00 | 0.00 | 39 | 1017.6 |
| 20260905233603 | 24 | 252 | 4.8 | 8.0 | 0.00 | 0.00 | 0.00 | 39 | 1017.6 |
| 20260905232603 | 23 | 264 | 11.3 | 11.3 | 0.00 | 0.00 | 0.00 | 44 | 1017.7 |
| 20260905232103 | 23 | 260 | 8.0 | 14.5 | 0.00 | 0.00 | 0.00 | 46 | 1017.8 |
| 20260905231620 | 24 | 274 | 8.0 | 14.5 | 0.00 | 0.00 | 0.00 | 45 | 1017.8 |
| 20260905231121 | 24 | 270 | 8.0 | 11.3 | 0.00 | 0.00 | 0.00 | 45 | 1017.9 |
| 20260905230621 | 24 | 240 | 8.0 | 9.7 | 0.00 | 0.00 | 0.00 | 41 | 1017.9 |
| 20260905230104 | 24 | 327 | 1.6 | 4.8 | 0.00 | 0.00 | 0.00 | 42 | 1017.9 |
| 20260905225603 | 24 | 249 | 0.0 | 4.8 | 0.00 | 0.00 | 0.00 | 42 | 1018.0 |
| 20260905224604 | 25 | 66 | 3.2 | 8.0 | 0.00 | 0.00 | 0.00 | 38 | 1018.0 |
| 20260905224103 | 25 | 49 | 4.8 | 8.0 | 0.00 | 0.00 | 0.00 | 37 | 1018.0 |
| 20260905223603 | 25 | 17 | 8.0 | 11.3 | 0.00 | 0.00 | 0.00 | 37 | 1018.0 |
| 20260905223103 | 25 | 21 | 4.8 | 11.3 | 0.00 | 0.00 | 0.00 | 37 | 1018.0 |
| 20260905222603 | 25 | 204 | 9.7 | 14.5 | 0.00 | 0.00 | 0.00 | 37 | 1018.0 |
| 20260905222103 | 25 | 98 | 8.0 | 12.9 | 0.00 | 0.00 | 0.00 | 37 | 1017.9 |
| 20260905221603 | 25 | 25 | 8.0 | 11.3 | 0.00 | 0.00 | 0.00 | 37 | 1017.9 |
| 20260905221104 | 25 | 43 | 4.8 | 12.9 | 0.00 | 0.00 | 0.00 | 36 | 1018.0 |
| 20260905220604 | 25 | 21 | 8.0 | 14.5 | 0.00 | 0.00 | 0.00 | 36 | 1018.0 |
| 20260905220105 | 25 | 24 | 9.7 | 16.1 | 0.00 | 0.00 | 0.00 | 36 | 1018.0 |
| 20260905215604 | 25 | 131 | 8.0 | 11.3 | 0.00 | 0.00 | 0.00 | 36 | 1018.0 |
| 20260905215103 | 25 | 104 | 8.0 | 9.7 | 0.00 | 0.00 | 0.00 | 35 | 1018.0 |
| 20260905214605 | 25 | 40 | 6.4 | 11.3 | 0.00 | 0.00 | 0.00 | 35 | 1018.2 |
| 20260905214104 | 25 | 89 | 4.8 | 9.7 | 0.00 | 0.00 | 0.00 | 35 | 1018.2 |
| 20260905213603 | 25 | 0 | 4.8 | 12.9 | 0.00 | 0.00 | 0.00 | 35 | 1018.1 |
| 20260905213104 | 25 | 102 | 1.6 | 9.7 | 0.00 | 0.00 | 0.00 | 35 | 1018.1 |
| 20260905211604 | 25 | 52 | 3.2 | 8.0 | 0.00 | 0.00 | 0.00 | 35 | 1018.2 |
| 20260905211104 | 25 | 286 | 6.4 | 9.7 | 0.00 | 0.00 | 0.00 | 35 | 1018.2 |
| 20260905210603 | 25 | 280 | 3.2 | 11.3 | 0.00 | 0.00 | 0.00 | 35 | 1018.2 |
| 20260905210104 | 25 | 2 | 4.8 | 9.7 | 0.00 | 0.00 | 0.00 | 35 | 1018.2 |
| 20260905205603 | 25 | 33 | 4.8 | 9.7 | 0.00 | 0.00 | 0.00 | 36 | 1018.1 |
| 20260905205104 | 25 | 71 | 4.8 | 9.7 | 0.00 | 0.00 | 0.00 | 36 | 1018.1 |
| 20260905204604 | 25 | 7 | 6.4 | 8.0 | 0.00 | 0.00 | 0.00 | 36 | 1018.1 |
| 20260905204104 | 25 | 275 | 4.8 | 11.3 | 0.00 | 0.00 | 0.00 | 36 | 1018.1 |
| 20260905203604 | 25 | 27 | 8.0 | 12.9 | 0.00 | 0.00 | 0.00 | 36 | 1018.0 |
| 20260905203103 | 25 | 31 | 6.4 | 12.9 | 0.00 | 0.00 | 0.00 | 37 | 1018.0 |
| 20260905202103 | 25 | 291 | 6.4 | 9.7 | 0.00 | 0.00 | 0.00 | 37 | 1018.2 |
| 20260905201604 | 25 | 270 | 8.0 | 9.7 | 0.00 | 0.00 | 0.00 | 39 | 1018.2 |
| 20260905201103 | 25 | 262 | 8.0 | 9.7 | 0.00 | 0.00 | 0.00 | 40 | 1018.1 |
| 20260905200604 | 25 | 265 | 6.4 | 11.3 | 0.00 | 0.00 | 0.00 | 37 | 1018.1 |
| 20260905200104 | 25 | 270 | 8.0 | 11.3 | 0.00 | 0.00 | 0.00 | 35 | 1018.1 |
| 20260905195604 | 25 | 329 | 14.5 | 20.9 | 0.00 | 0.00 | 0.00 | 35 | 1018.2 |
| 20260905195104 | 25 | 349 | 4.8 | 9.7 | 0.00 | 0.00 | 0.00 | 37 | 1018.2 |
| 20260905194603 | 25 | 13 | 8.0 | 12.9 | 0.00 | 0.00 | 0.00 | 39 | 1018.3 |
| 20260905194104 | 25 | 11 | 3.2 | 11.3 | 0.00 | 0.00 | 0.00 | 41 | 1018.3 |
| 20260905193604 | 25 | 354 | 4.8 | 11.3 | 0.00 | 0.00 | 0.00 | 42 | 1018.3 |
| 20260905192604 | 25 | 5 | 4.8 | 9.7 | 0.00 | 0.00 | 0.00 | 44 | 1018.3 |
| 20260905192104 | 25 | 75 | 4.8 | 8.0 | 0.00 | 0.00 | 0.00 | 46 | 1018.4 |
| 20260905191603 | 25 | 73 | 6.4 | 9.7 | 0.00 | 0.00 | 0.00 | 42 | 1018.4 |
| 20260905191104 | 25 | 22 | 4.8 | 9.7 | 0.00 | 0.00 | 0.00 | 43 | 1018.5 |
| 20260905190604 | 24 | 270 | 4.8 | 9.7 | 0.00 | 0.00 | 0.00 | 47 | 1018.5 |
| 20260905190104 | 24 | 257 | 8.0 | 9.7 | 0.00 | 0.00 | 0.00 | 49 | 1018.5 |
| 20260905185103 | 24 | 248 | 4.8 | 4.8 | 0.00 | 0.00 | 0.00 | 48 | 1018.3 |
| 20260905184603 | 24 | 359 | 3.2 | 4.8 | 0.00 | 0.00 | 0.00 | 50 | 1018.3 |
| 20260905184104 | 24 | 270 | 0.0 | 3.2 | 0.00 | 0.00 | 0.00 | 49 | 1018.3 |
| 20260905183604 | 25 | 69 | 3.2 | 4.8 | 0.00 | 0.00 | 0.00 | 48 | 1018.2 |
| 20260905182104 | 24 | 258 | 3.2 | 4.8 | 0.00 | 0.00 | 0.00 | 51 | 1018.1 |
| 20260905181604 | 24 | 317 | 4.8 | 8.0 | 0.00 | 0.00 | 0.00 | 51 | 1018.1 |
| 20260905181104 | 24 | 7 | 4.8 | 8.0 | 0.00 | 0.00 | 0.00 | 52 | 1018.0 |
| 20260905180604 | 24 | 53 | 4.8 | 8.0 | 0.00 | 0.00 | 0.00 | 52 | 1018.0 |
| 20260905180104 | 24 | 2 | 3.2 | 9.7 | 0.00 | 0.00 | 0.00 | 52 | 1018.0 |
| 20260905175604 | 24 | 46 | 3.2 | 8.0 | 0.00 | 0.00 | 0.00 | 52 | 1018.1 |
| 20260905175103 | 24 | 249 | 1.6 | 8.0 | 0.00 | 0.00 | 0.00 | 52 | 1018.1 |
| 20260905174603 | 24 | 268 | 3.2 | 8.0 | 0.00 | 0.00 | 0.00 | 52 | 1017.9 |
| 20260905174103 | 24 | 316 | 3.2 | 4.8 | 0.00 | 0.00 | 0.00 | 52 | 1017.9 |
| 20260905173104 | 24 | 119 | 4.8 | 9.7 | 0.00 | 0.00 | 0.00 | 52 | 1017.8 |
| 20260905172604 | 24 | 98 | 4.8 | 8.0 | 0.00 | 0.00 | 0.00 | 55 | 1017.8 |
| 20260905172103 | 25 | 112 | 3.2 | 8.0 | 0.00 | 0.00 | 0.00 | 54 | 1017.8 |
| 20260905171603 | 25 | 47 | 3.2 | 8.0 | 0.00 | 0.00 | 0.00 | 55 | 1017.8 |
| 20260905171104 | 25 | 97 | 4.8 | 4.8 | 0.00 | 0.00 | 0.00 | 55 | 1017.8 |
| 20260905170604 | 25 | 328 | 3.2 | 4.8 | 0.00 | 0.00 | 0.00 | 55 | 1017.8 |
| 20260905170104 | 25 | 52 | 3.2 | 9.7 | 0.00 | 0.00 | 0.00 | 55 | 1017.8 |
| 20260905165603 | 25 | 165 | 0.0 | 3.2 | 0.00 | 0.00 | 0.00 | 54 | 1017.9 |
| 20260905165103 | 25 | 65 | 1.6 | 4.8 | 0.00 | 0.00 | 0.00 | 53 | 1017.9 |
| 20260905164603 | 25 | 309 | 3.2 | 11.3 | 0.00 | 0.00 | 0.00 | 53 | 1017.8 |
| 20260905164103 | 25 | 22 | 4.8 | 9.7 | 0.00 | 0.00 | 0.00 | 53 | 1017.8 |
| 20260905163603 | 26 | 359 | 4.8 | 4.8 | 0.00 | 0.00 | 0.00 | 52 | 1017.7 |
| 20260905163104 | 26 | 68 | 4.8 | 9.7 | 0.00 | 0.00 | 0.00 | 52 | 1017.7 |
| 20260905162604 | 26 | 356 | 4.8 | 4.8 | 0.00 | 0.00 | 0.00 | 52 | 1017.7 |
| 20260905162104 | 26 | 22 | 6.4 | 9.7 | 0.00 | 0.00 | 0.00 | 51 | 1017.8 |
| 20260905161603 | 26 | 76 | 3.2 | 8.0 | 0.00 | 0.00 | 0.00 | 51 | 1017.8 |
| 20260905161104 | 26 | 58 | 4.8 | 11.3 | 0.00 | 0.00 | 0.00 | 50 | 1017.9 |
| 20260905160603 | 26 | 51 | 8.0 | 12.9 | 0.00 | 0.00 | 0.00 | 50 | 1017.9 |
| 20260905160104 | 26 | 333 | 9.7 | 14.5 | 0.00 | 0.00 | 0.00 | 50 | 1017.9 |
| 20260905155103 | 27 | 68 | 9.7 | 14.5 | 0.00 | 0.00 | 0.00 | 48 | 1017.8 |
| 20260905154603 | 27 | 69 | 11.3 | 16.1 | 0.00 | 0.00 | 0.00 | 47 | 1018.0 |
| 20260905154103 | 27 | 90 | 11.3 | 20.9 | 0.00 | 0.00 | 0.00 | 46 | 1018.0 |
| 20260905153604 | 27 | 79 | 11.3 | 14.5 | 0.00 | 0.00 | 0.00 | 46 | 1017.9 |
| 20260905152603 | 27 | 39 | 9.7 | 14.5 | 0.00 | 0.00 | 0.00 | 45 | 1017.9 |
| 20260905152103 | 27 | 56 | 14.5 | 20.9 | 0.00 | 0.00 | 0.00 | 45 | 1018.0 |
| 20260905151604 | 27 | 45 | 14.5 | 24.1 | 0.00 | 0.00 | 0.00 | 45 | 1018.0 |
| 20260905151104 | 27 | 55 | 14.5 | 20.9 | 0.00 | 0.00 | 0.00 | 44 | 1017.9 |
| 20260905150604 | 28 | 87 | 12.9 | 14.5 | 0.00 | 0.00 | 0.00 | 44 | 1017.9 |
| 20260905150104 | 28 | 63 | 12.9 | 20.9 | 0.00 | 0.00 | 0.00 | 43 | 1017.9 |
| 20260905145103 | 28 | 89 | 12.9 | 16.1 | 0.00 | 0.00 | 0.00 | 43 | 1017.9 |
| 20260905143604 | 28 | 40 | 14.5 | 16.1 | 0.00 | 0.00 | 0.00 | 43 | 1017.8 |
| 20260905143104 | 28 | 70 | 16.1 | 20.9 | 0.00 | 0.00 | 0.00 | 43 | 1017.8 |
| 20260905142604 | 28 | 33 | 16.1 | 22.5 | 0.00 | 0.00 | 0.00 | 42 | 1017.8 |
| 20260905142104 | 28 | 55 | 11.3 | 22.5 | 0.00 | 0.00 | 0.00 | 42 | 1017.9 |
| 20260905141604 | 28 | 81 | 14.5 | 20.9 | 0.00 | 0.00 | 0.00 | 42 | 1017.9 |
| 20260905141103 | 28 | 62 | 11.3 | 19.3 | 0.00 | 0.00 | 0.00 | 42 | 1017.9 |
| 20260905140604 | 28 | 63 | 16.1 | 20.9 | 0.00 | 0.00 | 0.00 | 41 | 1017.9 |
| 20260905140106 | 28 | 86 | 12.9 | 20.9 | 0.00 | 0.00 | 0.00 | 41 | 1017.9 |
| 20260905135604 | 29 | 67 | 16.1 | 22.5 | 0.00 | 0.00 | 0.00 | 40 | 1017.9 |
| 20260905134603 | 29 | 106 | 11.3 | 16.1 | 0.00 | 0.00 | 0.00 | 40 | 1017.9 |
| 20260905134105 | 29 | 225 | 9.7 | 14.5 | 0.00 | 0.00 | 0.00 | 40 | 1017.9 |
| 20260905133603 | 29 | 101 | 11.3 | 20.9 | 0.00 | 0.00 | 0.00 | 41 | 1018.0 |
| 20260905132603 | 29 | 0 | 9.7 | 20.9 | 0.00 | 0.00 | 0.00 | 40 | 1018.0 |
| 20260905132104 | 29 | 56 | 9.7 | 16.1 | 0.00 | 0.00 | 0.00 | 39 | 1018.0 |
| 20260905131103 | 29 | 93 | 11.3 | 22.5 | 0.00 | 0.00 | 0.00 | 39 | 1018.0 |
| 20260905130604 | 28 | 58 | 16.1 | 20.9 | 0.00 | 0.00 | 0.00 | 42 | 1018.0 |
| 20260905130104 | 29 | 28 | 16.1 | 20.9 | 0.00 | 0.00 | 0.00 | 41 | 1018.0 |
| 20260905125603 | 29 | 47 | 20.9 | 25.7 | 0.00 | 0.00 | 0.00 | 41 | 1018.0 |
| 20260905125104 | 30 | 42 | 16.1 | 22.5 | 0.00 | 0.00 | 0.00 | 40 | 1018.0 |
| 20260905124604 | 29 | 53 | 20.9 | 25.7 | 0.00 | 0.00 | 0.00 | 42 | 1018.0 |
| 20260905124104 | 29 | 55 | 20.9 | 25.7 | 0.00 | 0.00 | 0.00 | 42 | 1018.0 |
| 20260905123604 | 29 | 55 | 19.3 | 25.7 | 0.00 | 0.00 | 0.00 | 42 | 1018.2 |
| 20260905123104 | 29 | 68 | 22.5 | 27.4 | 0.00 | 0.00 | 0.00 | 43 | 1018.2 |
| 20260905122603 | 29 | 60 | 19.3 | 24.1 | 0.00 | 0.00 | 0.00 | 43 | 1018.2 |
| 20260905122104 | 29 | 98 | 14.5 | 27.4 | 0.00 | 0.00 | 0.00 | 42 | 1018.3 |
| 20260905121604 | 30 | 59 | 16.1 | 22.5 | 0.00 | 0.00 | 0.00 | 40 | 1018.3 |
| 20260905120106 | 29 | 13 | 19.3 | 25.7 | 0.00 | 0.00 | 0.00 | 40 | 1018.2 |
| 20260905115604 | 29 | 101 | 25.7 | 32.2 | 0.00 | 0.00 | 0.00 | 41 | 1018.3 |
| 20260905115104 | 29 | 90 | 16.1 | 24.1 | 0.00 | 0.00 | 0.00 | 41 | 1018.3 |
| 20260905114603 | 29 | 352 | 16.1 | 25.7 | 0.00 | 0.00 | 0.00 | 39 | 1018.2 |
| 20260905114104 | 30 | 40 | 19.3 | 29.0 | 0.00 | 0.00 | 0.00 | 37 | 1018.2 |
| 20260905113603 | 29 | 94 | 27.4 | 33.8 | 0.00 | 0.00 | 0.00 | 40 | 1018.4 |
| 20260905112604 | 29 | 77 | 19.3 | 25.7 | 0.00 | 0.00 | 0.00 | 38 | 1018.4 |
| 20260905112104 | 30 | 75 | 17.7 | 24.1 | 0.00 | 0.00 | 0.00 | 39 | 1018.6 |
| 20260905111604 | 30 | 107 | 19.3 | 29.0 | 0.00 | 0.00 | 0.00 | 38 | 1018.6 |
| 20260905111104 | 30 | 41 | 22.5 | 29.0 | 0.00 | 0.00 | 0.00 | 36 | 1018.4 |
| 20260905110604 | 29 | 71 | 20.9 | 32.2 | 0.00 | 0.00 | 0.00 | 38 | 1018.4 |
| 20260905110104 | 29 | 69 | 22.5 | 32.2 | 0.00 | 0.00 | 0.00 | 41 | 1018.4 |
| 20260905105603 | 29 | 81 | 25.7 | 33.8 | 0.00 | 0.00 | 0.00 | 40 | 1018.4 |
| 20260905105104 | 29 | 58 | 25.7 | 33.8 | 0.00 | 0.00 | 0.00 | 38 | 1018.4 |
| 20260905104604 | 29 | 73 | 24.1 | 35.4 | 0.00 | 0.00 | 0.00 | 37 | 1018.3 |
| 20260905103604 | 28 | 72 | 27.4 | 35.4 | 0.00 | 0.00 | 0.00 | 41 | 1018.2 |
| 20260905103104 | 29 | 78 | 27.4 | 33.8 | 0.00 | 0.00 | 0.00 | 40 | 1018.2 |
| 20260905102603 | 29 | 56 | 27.4 | 33.8 | 0.00 | 0.00 | 0.00 | 37 | 1018.2 |
| 20260905102104 | 29 | 75 | 22.5 | 29.0 | 0.00 | 0.00 | 0.00 | 40 | 1018.3 |
| 20260905101603 | 29 | 60 | 22.5 | 38.6 | 0.00 | 0.00 | 0.00 | 41 | 1018.3 |
| 20260905101103 | 29 | 72 | 30.6 | 35.4 | 0.00 | 0.00 | 0.00 | 40 | 1018.1 |
| 20260905100603 | 29 | 87 | 24.1 | 29.0 | 0.00 | 0.00 | 0.00 | 41 | 1018.1 |
| 20260905100104 | 28 | 47 | 25.7 | 40.2 | 0.00 | 0.00 | 0.00 | 44 | 1018.1 |
| 20260905095604 | 28 | 46 | 30.6 | 35.4 | 0.00 | 0.00 | 0.00 | 43 | 1017.9 |
| 20260905095104 | 29 | 68 | 27.4 | 35.4 | 0.00 | 0.00 | 0.00 | 41 | 1017.9 |
| 20260905094604 | 28 | 62 | 25.7 | 33.8 | 0.00 | 0.00 | 0.00 | 42 | 1018.0 |
| 20260905094103 | 28 | 63 | 29.0 | 38.6 | 0.00 | 0.00 | 0.00 | 43 | 1018.0 |
| 20260905093604 | 28 | 66 | 33.8 | 38.6 | 0.00 | 0.00 | 0.00 | 44 | 1018.0 |